{"data":{"norad_id":58356,"epoch":"2026-09-20T15:14:56.464800Z","epoch_age_seconds":131886,"freshness":"FRESH","line1":"1 58356U 23177F   26263.63537575  .00001431  00000+0  61516-4 0  9998","line2":"2 58356  43.0059 329.4705 0001956 264.4145  95.6483 15.27580139157983","mean_motion":15.27580139,"eccentricity":0.0001956,"inclination_deg":43.0059,"raan_deg":329.4705,"arg_perigee_deg":264.4145,"mean_anomaly_deg":95.6483,"bstar":6.1516e-5,"rev_number":15798,"period_min":94.266740135982,"perigee_km":481.70663190471,"apogee_km":484.39072774265,"semimajor_km":6861.1856798237,"source":"CELESTRAK","updated_at":"2026-09-21T09:00:33.841728Z"}}